TimeCDT,TemperatureF,Dew PointF,Humidity,Sea Level PressureIn,VisibilityMPH,Wind Direction,Wind SpeedMPH,Gust SpeedMPH,PrecipitationIn,Events,Conditions,WindDirDegrees,DateUTC
12:52 AM,27.0,21.9,81,30.40,10.0,North,6.9,-,N/A,,Clear,360,2012-10-06 05:52:00
1:52 AM,25.0,23.0,92,30.41,10.0,North,8.1,-,N/A,,Clear,350,2012-10-06 06:52:00
2:52 AM,25.0,23.0,92,30.42,10.0,NW,6.9,-,N/A,,Clear,310,2012-10-06 07:52:00
3:52 AM,25.0,23.0,92,30.42,10.0,NW,10.4,-,N/A,,Partly Cloudy,320,2012-10-06 08:52:00
4:36 AM,24.8,24.8,100,30.35,10.0,NW,10.4,-,N/A,,Scattered Clouds,320,2012-10-06 09:36:00
4:52 AM,26.1,24.1,92,30.41,10.0,NW,11.5,-,N/A,,Partly Cloudy,320,2012-10-06 09:52:00
5:52 AM,26.1,24.1,92,30.42,10.0,NW,4.6,-,N/A,,Clear,310,2012-10-06 10:52:00
6:00 AM,26.6,24.8,93,30.36,10.0,NW,4.6,-,N/A,,Scattered Clouds,320,2012-10-06 11:00:00
6:22 AM,23.0,21.2,93,30.37,10.0,West,4.6,-,N/A,,Mostly Cloudy,280,2012-10-06 11:22:00
6:52 AM,24.1,23.0,96,30.44,10.0,WNW,3.5,-,N/A,,Mostly Cloudy,300,2012-10-06 11:52:00
7:19 AM,24.8,23.0,93,30.38,10.0,WNW,4.6,-,N/A,,Scattered Clouds,300,2012-10-06 12:19:00
7:52 AM,28.0,26.1,92,30.45,6.0,NW,8.1,-,0.00,Snow,Light Snow,310,2012-10-06 12:52:00
8:52 AM,28.0,26.1,92,30.45,10.0,WNW,9.2,-,0.00,,Overcast,300,2012-10-06 13:52:00
9:52 AM,30.9,28.9,92,30.46,10.0,NW,10.4,-,N/A,,Mostly Cloudy,320,2012-10-06 14:52:00
10:52 AM,35.1,28.9,78,30.46,10.0,WNW,12.7,-,N/A,,Scattered Clouds,300,2012-10-06 15:52:00
11:52 AM,39.0,26.1,60,30.44,10.0,NW,9.2,-,N/A,,Partly Cloudy,310,2012-10-06 16:52:00
12:52 PM,41.0,23.0,49,30.42,10.0,NNW,8.1,-,N/A,,Scattered Clouds,330,2012-10-06 17:52:00
1:52 PM,44.1,21.0,40,30.39,10.0,WNW,6.9,-,N/A,,Clear,300,2012-10-06 18:52:00
2:52 PM,43.0,19.9,40,30.36,10.0,SW,3.5,-,N/A,,Partly Cloudy,230,2012-10-06 19:52:00
3:52 PM,45.0,18.0,34,30.34,10.0,West,3.5,-,N/A,,Clear,280,2012-10-06 20:52:00
4:52 PM,45.0,19.0,36,30.32,10.0,Calm,Calm,-,N/A,,Clear,0,2012-10-06 21:52:00
5:52 PM,44.1,19.9,38,30.31,10.0,WSW,4.6,-,N/A,,Clear,240,2012-10-06 22:52:00
6:52 PM,43.0,19.9,40,30.29,10.0,West,3.5,-,N/A,,Partly Cloudy,270,2012-10-06 23:52:00
7:52 PM,34.0,19.0,54,30.29,10.0,Calm,Calm,-,N/A,,Clear,0,2012-10-07 00:52:00
8:52 PM,28.9,21.0,72,30.29,10.0,Calm,Calm,-,N/A,,Clear,0,2012-10-07 01:52:00
9:52 PM,32.0,23.0,69,30.26,10.0,SE,3.5,-,N/A,,Clear,140,2012-10-07 02:52:00
10:52 PM,32.0,21.9,66,30.25,10.0,SSE,3.5,-,N/A,,Clear,150,2012-10-07 03:52:00
11:52 PM,30.9,21.9,69,30.22,10.0,SE,4.6,-,N/A,,Clear,140,2012-10-07 04:52:00